Theta_e
355 354 354 353 355 351 348 343 345 344 344 344 345 344 342 341 349 348 348 346 346 346
355 353 351 351 350 343 342 339 340 341 341 342 342 341 340 338 340 340 339 342 341 343
348 349 348 345 342 341 340 341 340 339 340 339 336 335 334 333 337 337 336 335 336 336
344 343 342 339 339 339 340 340 338 337 335 334 333 333 334 334 335 333 333 335 334 334
341 341 337 338 337 337 337 339 336 336 335 334 329 329 328 329 331 330 330 331 329 329
335 335 335 336 335 335 335 334 333 333 332 326 324 321 324 328 330 329 328 328 328 329
335 336 332 334 333 332 332 331 330 328 326 324 320 319 323 327 329 328 327 325 325 326
336 334 333 332 331 329 328 328 329 324 321 319 312 316 319 322 325 328 324 322 322 324
334 333 331 330 328 329 327 328 329 326 321 317 310 317 319 321 321 328 325 320 322 325
332 330 328 328 328 327 326 327 327 326 326 319 315 317 317 320 320 326 326 324 322 317
330 327 327 327 327 328 327 327 328 325 326 325 316 315 316 318 322 326 326 325 322 319
329 327 327 326 327 329 330 330 329 328 327 326 321 313 314 317 319 317 325 323 320 318
330 328 326 328 329 331 331 331 326 329 330 323 322 313 313 315 317 314 315 321 317 317
330 328 329 330 332 331 332 331 329 328 330 329 327 319 312 313 320 316 315 317 314 317
Wind_Speed
4 2 3 6 3 5 5 6 7 6 6 6 5 6 7 5 4 5 4 7 7 5
3 3 5 4 6 7 7 6 7 6 6 6 6 7 8 6 6 6 6 3 3 4
6 6 6 6 6 6 6 5 6 6 6 9 11 11 11 9 9 8 6 6 9 8
7 6 6 6 6 5 5 5 7 8 10 8 7 7 5 6 7 7 9 8 7 8
6 6 6 5 6 6 6 5 8 4 4 6 10 9 9 9 7 6 7 6 6 8
6 6 6 6 7 6 5 6 8 7 8 9 8 9 8 7 7 8 7 6 8 9
6 6 7 6 6 7 7 7 7 8 8 7 8 9 9 10 7 7 10 12 10 10
7 7 7 7 6 7 7 6 6 8 9 10 9 9 9 10 10 6 8 10 9 7
6 7 6 6 6 5 5 6 5 6 8 8 8 15 16 12 9 6 8 6 5 4
7 7 6 6 5 5 5 5 5 5 5 7 7 14 17 19 7 4 5 5 6 7
8 8 6 6 5 4 4 4 3 4 5 5 5 12 14 19 9 4 4 5 6 5
8 8 6 6 4 3 2 3 3 3 4 2 4 5 10 11 8 9 4 6 4 3
8 8 6 5 4 2 3 2 4 1 4 7 6 4 2 6 5 7 7 6 4 4
7 7 6 4 3 4 2 1 4 5 4 6 6 7 6 3 3 3 5 5 5 5
Wind_Direction
85 111 41 29 343 46 28 58 39 20 18 12 6 15 13 320 14 26 3 3 356 335
104 81 83 32 17 45 37 18 35 16 17 8 23 19 357 4 17 15 349 355 10 344
104 95 94 72 58 64 43 35 34 18 18 31 38 24 14 358 12 6 15 6 12 351
108 98 76 81 66 55 62 46 40 26 45 24 44 7 19 338 22 9 3 9 10 354
94 82 80 58 80 52 51 40 74 33 81 36 47 23 13 4 349 16 350 19 17 12
116 100 85 76 66 69 53 54 47 37 39 53 50 27 5 342 17 3 10 18 40 36
85 64 77 82 74 79 62 55 50 44 28 59 44 33 8 358 5 20 34 27 19 47
89 86 84 86 78 65 61 65 67 65 39 12 45 28 8 350 338 46 57 42 4 14
114 113 105 95 88 94 86 72 60 80 74 36 28 10 8 2 319 43 76 51 11 19
131 116 114 116 115 102 91 79 64 49 78 73 22 8 3 351 320 50 57 85 39 9
135 127 136 129 129 127 110 95 85 71 22 80 51 6 358 354 339 22 95 77 58 33
143 140 149 149 134 115 161 184 178 149 140 26 100 11 359 356 343 358 12 103 92 93
147 147 154 136 158 182 252 249 303 89 204 164 158 205 12 358 348 350 333 148 164 108
148 152 138 171 188 205 239 270 252 242 233 202 179 175 195 264 320 358 320 334 9 360